Preview of NWS' New Version of Forecast
This preview is not operational and should not be used for support decisions.

Regional Weather Roundup (RWR)

Issued by National Weather Service (NWS)

                            
000
ASUS42 KTBW 231316
RWRFL 
FLORIDA REGIONAL WEATHER ROUNDUP
NATIONAL WEATHER SERVICE TAMPA BAY RUSKIN FL
900 AM EDT SAT MAR 23 2019

NOTE: "FAIR" INDICATES FEW OR NO CLOUDS BELOW 12,000 FEET WITH NO
SIGNIFICANT WEATHER AND/OR OBSTRUCTIONS TO VISIBILITY.

FLZ001>010-012>015-112-114-115-231400-
PANHANDLE FLORIDA
  
CITY           SKY/WX    TMP DP  RH WIND       PRES   REMARKS
PENSACOLA      FAIR      52  49  89 N3        30.22R                  
PENSACOLA NAS  FAIR      48  48 100 CALM      30.22R FOG              
MILTON NAS     FAIR      46  44  93 CALM      30.23R                  
CRESTVIEW      FAIR      40  36  86 CALM      30.24R                  
DUKE FIELD     FAIR      42  39  89 CALM      30.23R                  
VALPARAISO     FAIR      48  39  69 N3        30.22R                  
MARY ESTHER    SUNNY     45  40  83 N5        30.21R WCI  43          
PANAMA CITY    FAIR      48  43  82 CALM      30.22R                  
TYNDALL AFB    FAIR      55  43  64 NE3       30.23R                  
APALACHICOLA   FAIR      50  46  86 CALM      30.22R                  

STATION/POSITION SKY/WX   TEMP    WIND        PRES    WAVE   SWELL
                          AIR SEA DIR/SP/G            HT/PER HT/PER
                          (F)     (DEG/KT/KT) (MB)    (FT/S) (FT/S)
30.1N   87.6W                                 1023.6R   1
29.2N   88.2W                      20/  8/ 10 1023.8R   0
PANAMA CITY BEAC           52 65              1023.6R
TOWER C                    61      30/ 11/ 11 1023.2R

$$
FLZ011-016>038-118-127-128-134-139-239-231400-
NORTH FLORIDA
  
CITY           SKY/WX    TMP DP  RH WIND       PRES   REMARKS
MARIANNA       FAIR      47  44  90 CALM      30.22R                  
TALLAHASSEE    FAIR      44  38  79 CALM      30.22R                  
PERRY          FAIR      43  42  97 CALM      30.22R                  
LIVE OAK       SUNNY     43  43 100 CALM      30.21R FOG              
CROSS CITY     FAIR      47  46  96 CALM      30.21R                  
LAKE CITY      FAIR      48  43  81 CALM      30.21R                  
GAINESVILLE    FAIR      55  47  74 N3        30.23R                  
WILLISTON        N/A    N/A N/A N/A MISG        N/A                   
PALATKA        FAIR     N/A N/A N/A CALM      30.20R                  
MAYPORT NAS    FAIR      56  41  57 NW6       30.19R                  
JACKSONVILLE   FAIR      50  43  77 SW3       30.20R                  
JAX NAS        FAIR      54  41  61 W3        30.21R                  
JAX CECIL      SUNNY    N/A N/A N/A CALM      30.20R                  
FERNANDINA BEA FAIR      54  41  61 N5        30.19R                  
ST AUGUSTINE   FAIR      54  42  64 NW5       30.21R                  
PALM COAST     SUNNY     54  48  82 CALM      30.20R                  

STATION/POSITION SKY/WX   TEMP    WIND        PRES    WAVE   SWELL
                          AIR SEA DIR/SP/G            HT/PER HT/PER
                          (F)     (DEG/KT/KT) (MB)    (FT/S) (FT/S)
SHELL POINT      NOT AVBL
KEATON BEACH               53      30/  5/  6 1023.2R
CEDAR KEY                  56      30/  5/  6 1022.0R
FERNANDINA                 56 62              1022.9R
30.7N   81.3W                 62                N/A     2/ 4
MAYPORT                    54 63              1022.2R
31.4N   80.9W              59 61   10/ 17/ 19 1021.5R   2/ 4
ST AUGUSTINE               56 62  340/  6/  7 1022.7R

$$
FLZ040-043>046-052-053-057-058-063-144-231400-
INTERIOR CENTRAL FLORIDA
  
CITY           SKY/WX    TMP DP  RH WIND       PRES   REMARKS
OCALA          FAIR      44  44 100 CALM      30.21R                  
LEESBURG       FAIR      55  51  86 N6        30.21R                  
SANFORD        FAIR      58  51  78 N8        30.19R                  
ORLANDO EXEC   FAIR      58  46  64 N10       30.19R                  
ORLANDO INTL   FAIR      57  50  77 N7        30.19R                  
KISSIMMEE      FAIR      55  51  86 CALM      30.21R                  
WINTER HAVEN   FAIR      58  54  86 N5        30.21R                  
LAKELAND       SUNNY     52  48  87 CALM      30.21R                  
BARTOW         SUNNY     54  50  87 CALM      30.19R                  
SEBRING        FAIR      52  49  90 N3        30.20R                  
OKEECHOBEE     FAIR      52  48  87 CALM      30.19R                  

$$
FLZ041-047-054-059-064-141-147-231400-
EAST CENTRAL FLORIDA
  
CITY           SKY/WX    TMP DP  RH WIND       PRES   REMARKS
ORMOND BEACH   SUNNY     50  50 100 NW3       30.20R                  
DAYTONA BEACH  FAIR      54  51  90 NW6       30.20R                  
DELAND         FAIR      54  50  87 NW5       30.20R                  
NEW SMYRNA BEA SUNNY     54  48  82 NW3       30.21R                  
JFK SPACE CTR  FAIR      56  53  89 N3        30.18R                  
TITUSVILLE     SUNNY     54  52  94 CALM      30.19R                  
CAPE CANAVERAL FAIR      59  53  81 NW7       30.17R                  
PATRICK AFB    FAIR      61  55  80 NW6       30.18R                  
MELBOURNE      FAIR      57  50  77 NW5       30.18R                  
VERO BEACH     FAIR      58  51  78 NW3       30.18R                  
FT PIERCE      FAIR      56  50  80 CALM      30.17                   
STUART         SUNNY     59  50  72 NW6       30.19R                  

STATION/POSITION SKY/WX   TEMP    WIND        PRES    WAVE   SWELL
                          AIR SEA DIR/SP/G            HT/PER HT/PER
                          (F)     (DEG/KT/KT) (MB)    (FT/S) (FT/S)
28.5N   80.2W              65     340/ 10/ 12 1022.2R   3/ 9   2/ 9
28.9N   78.5W              71 74  330/ 10/ 14 1021.5R   5/ 7   5/ 7
TRIDENT PIER               59 67              1023.0R
28.4N   80.5W                 67                N/A     2/10   2/11
27.5N   80.2W                 69                N/A     3/11   2/11

$$
FLZ050-056-061-142-242-148-248-149-249-151-251-155-255-
160-260-231400-
WEST CENTRAL FLORIDA
  
CITY           SKY/WX    TMP DP  RH WIND       PRES   REMARKS
CRYSTAL RIVER  PTSUNNY   46  46 100 CALM      30.21R FOG              
INVERNESS      PTSUNNY   45  45 100 CALM      30.22R FOG              
BROOKSVILLE    FAIR      51  49  92 N5        30.21R                  
CLEARWATER AIR FAIR      57  52  82 CALM      30.20R                  
ST PETE CLEARW FAIR      60  55  83 NE3       30.20R                  
TAMPA INTL     FAIR      59  52  77 NE5       30.21R                  
TAMPA EXEC     FAIR      52  50  93 CALM      30.21R                  
PLANT CITY     FAIR      55  54  94 CALM      30.22R                  
MACDILL AFB    FAIR      59  55  88 E3        30.20R                  
PETER O KNIGHT CLOUDY    59  59 100 NE3       30.21R                  
ST PETERSBURG  FAIR      62  56  80 NE6       30.18R                  
SARASOTA       FAIR      57  52  83 CALM      30.18R                  
VENICE         FAIR      59  52  77 NE3       30.20R                  

STATION/POSITION SKY/WX   TEMP    WIND        PRES    WAVE   SWELL
                          AIR SEA DIR/SP/G            HT/PER HT/PER
                          (F)     (DEG/KT/KT) (MB)    (FT/S) (FT/S)
27.3N   84.2W                 72                N/A     2/ 6
CLEARWATER BEACH           60 67              1022.4R
MIDDLE TAMPA BAY           60                 1022.4R
VENICE                     59 71   40/  2/  3 1022.5R

$$
FLZ066-069-070-075>078-162-262-165-265-231400-
SOUTHWEST FLORIDA AND KEYS
  
CITY           SKY/WX    TMP DP  RH WIND       PRES   REMARKS
PUNTA GORDA    FAIR      56  51  84 NE3       30.21R                  
FT MYERS       FAIR      59  50  72 N6        30.18R                  
SOUTHWEST INTL FAIR      58  49  72 NE6       30.19R                  
NAPLES         FAIR      57  50  77 NE8       30.18R                  
MARCO ISLAND   FAIR      57  50  77 NE7       30.20R                  
IMMOKALEE      FAIR      55  50  82 NE6       30.18R                  
MARATHON       FAIR      70  52  52 NE12      30.16R                  
KEY WEST NAS   PTSUNNY   69  55  60 E12       30.17R                  
KEY WEST INTL  PTSUNNY   68  56  65 E8        30.17R                  

STATION/POSITION SKY/WX   TEMP    WIND        PRES    WAVE   SWELL
                          AIR SEA DIR/SP/G            HT/PER HT/PER
                          (F)     (DEG/KT/KT) (MB)    (FT/S) (FT/S)
NAPLES                     57 69              1021.8R
26.0N   85.6W              69 79  360/  6/ 10 1021.8R
DRY TORTUGAS               70      40/ 11/ 13 1021.7R
SAND KEY                   68                 1021.4R
SOMBRERO KEY               67                 1020.8R

$$
FLZ067-068-071>074-168-172>174-231400-
SOUTHEAST FLORIDA 
  
CITY           SKY/WX    TMP DP  RH WIND       PRES   REMARKS
W PALM BEACH   FAIR      61  49  64 N5        30.18R                  
FT LAUDER-EXEC FAIR      62  46  55 N5        30.17R                  
FT LAUDERDALE  FAIR      62  48  60 N6        30.17R                  
POMPANO BEACH  FAIR      62  45  53 N6        30.17R                  
PEMBROKE PINES FAIR      61  49  64 N7        30.19R                  
OPA LOCKA      FAIR      62  50  64 N5        30.18R                  
MIAMI          FAIR      61  49  64 NE6       30.18R                  
WEST KENDALL   FAIR      63  52  67 NE6       30.17R                  
HOMESTEAD      FAIR      61  51  68 N9        30.17R                  

STATION/POSITION SKY/WX   TEMP    WIND        PRES    WAVE   SWELL
                          AIR SEA DIR/SP/G            HT/PER HT/PER
                          (F)     (DEG/KT/KT) (MB)    (FT/S) (FT/S)
VIRGINIA KEY               66 73              1020.7R
LAKE WORTH                 60 74              1022.4R
FOWEY ROCKS                66 77  360/ 13/ 14 1021.5R
SETTLEMENT POINT           71     120/  5/  6 1021.4R

$$